Weather History for Tillamook, OR

Change the Weather History Date:

Monday, May 6, 2013

  Actual Average (KMMV) Record (KMMV)
Temperature  
Mean Temperature 55 °F 54 °F  
Max Temperature 66 °F 66 °F 91 °F (1987)
Min Temperature 44 °F 42 °F 26 °F (1965)
Degree Days  
Heating Degree Days 10 11  
Month to date heating degree days 71  
Since 1 July heating degree days 4469  
Cooling Degree Days 0 0  
Month to date cooling degree days 0  
Year to date cooling degree days 0  
Growing Degree Days 5 (Base 50)    
Moisture  
Dew Point 49 °F    
Average Humidity 79    
Maximum Humidity 100    
Minimum Humidity 60    
Precipitation  
Precipitation 0.00 in 0.08 in 1.20 in (1963)
Month to date precipitation 0.42  
Year to date precipitation 17.90  
Sea Level Pressure  
Sea Level Pressure 29.88 in    
Wind  
Wind Speed 3 mph (West)    
Max Wind Speed 14 mph    
Max Gust Speed -    
Visibility 9 miles    
Events      
T = Trace of Precipitation, MM = Missing Value Source: NWS Daily Summary

Daily Weather History Graph

Daily Weather History Graph

Search for Another Location

Airport:

Trip Planner

Search our weather history database for the weather conditions in past years. The results will help you decide how hot, cold, wet, or windy it might be!

Date:

Astronomy

May. 06, 2013 Rise Set
Actual Time 6:55 AM MDT 9:28 PM MDT
Civil Twilight 6:22 AM MDT 10:02 PM MDT
Nautical Twilight 5:40 AM MDT 10:44 PM MDT
Astronomical Twilight 4:52 AM MDT 11:32 PM MDT
Moon 5:10 AM MDT (5/6) 6:26 PM MDT (5/6)
Length of Visible Light 15h 39m
Length of Day
14h 32m
Waning Crescent, 10% of the Moon is Illuminated
May 6
Waning Crescent
May 9
New
May 17
First Quarter
May 24
Full
May 31
Last Quarter

Hourly Weather History & Observations

Time (MDT) Temp. Windchill Dew Point Humidity Pressure Visibility Wind Dir Wind Speed Gust Speed Precip Events Conditions
12:15 AM 51.8 °F - 48.2 °F 88% 29.85 in 7.0 mi SSE 4.6 mph - N/A   Clear
12:35 AM 51.8 °F - 48.2 °F 88% 29.85 in 7.0 mi Calm Calm - N/A   Clear
12:55 AM 51.8 °F - 48.2 °F 88% 29.85 in 7.0 mi Calm Calm - N/A   Clear
1:15 AM 50.0 °F - 46.4 °F 87% 29.86 in 7.0 mi Calm Calm - N/A   Clear
1:35 AM 50.0 °F - 48.2 °F 94% 29.86 in 7.0 mi Calm Calm - N/A   Clear
1:55 AM 50.0 °F - 48.2 °F 94% 29.86 in 7.0 mi Calm Calm - N/A   Clear
2:15 AM 50.0 °F - 48.2 °F 94% 29.85 in 7.0 mi Calm Calm - N/A   Clear
2:35 AM 50.0 °F - 46.4 °F 87% 29.84 in 7.0 mi Calm Calm - N/A   Clear
2:55 AM 48.2 °F - 44.6 °F 87% 29.84 in 7.0 mi Calm Calm - N/A   Clear
3:15 AM 46.4 °F - 42.8 °F 87% 29.83 in 7.0 mi Calm Calm - N/A   Clear
3:35 AM 48.2 °F - 46.4 °F 93% 29.83 in 7.0 mi Calm Calm - N/A   Clear
3:55 AM 46.4 °F - 44.6 °F 93% 29.83 in 7.0 mi Calm Calm - N/A   Clear
4:15 AM 46.4 °F - 44.6 °F 93% 29.84 in 7.0 mi Calm Calm - N/A   Clear
4:35 AM 46.4 °F 44.3 °F 44.6 °F 93% 29.85 in 7.0 mi SE 4.6 mph - N/A   Clear
4:55 AM 46.4 °F 45.2 °F 46.4 °F 100% 29.86 in 7.0 mi SE 3.5 mph - N/A   Clear
5:15 AM 46.4 °F - 44.6 °F 93% 29.86 in 7.0 mi Calm Calm - N/A   Clear
5:35 AM 46.4 °F 44.3 °F 44.6 °F 93% 29.87 in 7.0 mi South 4.6 mph - N/A   Clear
5:55 AM 46.4 °F 45.2 °F 42.8 °F 87% 29.87 in 7.0 mi North 3.5 mph - N/A   Clear
6:15 AM 44.6 °F - 42.8 °F 93% 29.87 in 7.0 mi Calm Calm - N/A   Clear
6:35 AM 44.6 °F - 42.8 °F 93% 29.88 in 7.0 mi Calm Calm - N/A   Clear
6:55 AM 44.6 °F - 42.8 °F 93% 29.88 in 5.0 mi Calm Calm - N/A   Clear
7:15 AM 44.6 °F - 42.8 °F 93% 29.88 in 7.0 mi Calm Calm - N/A   Clear
7:35 AM 44.6 °F - 42.8 °F 93% 29.88 in 7.0 mi Calm Calm - N/A   Clear
7:55 AM 44.6 °F - 42.8 °F 93% 29.88 in 7.0 mi Calm Calm - N/A   Clear
8:15 AM 48.2 °F - 46.4 °F 93% 29.89 in 7.0 mi Calm Calm - N/A   Clear
8:35 AM 50.0 °F - 48.2 °F 94% 29.89 in 7.0 mi Calm Calm - N/A   Clear
8:55 AM 51.8 °F - 48.2 °F 88% 29.89 in 7.0 mi Calm Calm - N/A   Clear
9:15 AM 53.6 °F - 50.0 °F 88% 29.89 in 7.0 mi Calm Calm - N/A   Clear
9:35 AM 57.2 °F - 50.0 °F 77% 29.90 in 7.0 mi Calm Calm - N/A   Clear
9:55 AM 59.0 °F - 50.0 °F 72% 29.90 in 10.0 mi Calm Calm - N/A   Clear
10:15 AM 59.0 °F - 50.0 °F 72% 29.90 in 10.0 mi Calm Calm - N/A   Clear
10:35 AM 60.8 °F - 50.0 °F 68% 29.90 in 10.0 mi Calm Calm - N/A   Clear
10:55 AM 62.6 °F - 50.0 °F 63% 29.90 in 10.0 mi Calm Calm - N/A   Clear
11:15 AM 62.6 °F - 50.0 °F 63% 29.90 in 10.0 mi Calm Calm - N/A   Clear
11:35 AM 64.4 °F - 51.8 °F 64% 29.90 in 10.0 mi South 4.6 mph - N/A   Clear
11:55 AM 64.4 °F - 51.8 °F 64% 29.91 in 10.0 mi WNW 4.6 mph - N/A   Clear
12:15 PM 64.4 °F - 51.8 °F 64% 29.91 in 10.0 mi WNW 5.8 mph - N/A   Clear
12:35 PM 66.2 °F - 53.6 °F 64% 29.90 in 10.0 mi NW 10.4 mph - N/A   Clear
12:55 PM 64.4 °F - 51.8 °F 64% 29.90 in 10.0 mi NW 11.5 mph - N/A   Clear
1:15 PM 64.4 °F - 51.8 °F 64% 29.90 in 10.0 mi WNW 13.8 mph - N/A   Clear
1:35 PM 64.4 °F - 51.8 °F 64% 29.90 in 10.0 mi NW 11.5 mph - N/A   Clear
1:55 PM 66.2 °F - 53.6 °F 64% 29.90 in 10.0 mi WNW 11.5 mph - N/A   Clear
2:15 PM 66.2 °F - 53.6 °F 64% 29.89 in 10.0 mi WNW 12.7 mph - N/A   Clear
2:35 PM 66.2 °F - 53.6 °F 64% 29.90 in 10.0 mi WNW 13.8 mph - N/A   Clear
2:55 PM 66.2 °F - 51.8 °F 60% 29.90 in 10.0 mi WNW 12.7 mph - N/A   Clear
3:15 PM 66.2 °F - 51.8 °F 60% 29.90 in 10.0 mi WNW 11.5 mph - N/A   Clear
3:35 PM 66.2 °F - 51.8 °F 60% 29.90 in 10.0 mi West 10.4 mph - N/A   Clear
3:55 PM 66.2 °F - 51.8 °F 60% 29.89 in 10.0 mi WNW 11.5 mph - N/A   Clear
4:15 PM 66.2 °F - 51.8 °F 60% 29.89 in 10.0 mi WNW 12.7 mph - N/A   Clear
4:55 PM 66.2 °F - 51.8 °F 60% 29.88 in 10.0 mi WSW 8.1 mph - N/A   Clear
5:15 PM 64.4 °F - 51.8 °F 64% 29.88 in 10.0 mi WSW 8.1 mph - N/A   Clear
5:35 PM 64.4 °F - 51.8 °F 64% 29.87 in 10.0 mi WSW 9.2 mph - N/A   Clear
5:55 PM 64.4 °F - 51.8 °F 64% 29.87 in 10.0 mi WSW 8.1 mph - N/A   Clear
6:15 PM 64.4 °F - 51.8 °F 64% 29.87 in 10.0 mi WSW 8.1 mph - N/A   Clear
6:35 PM 64.4 °F - 51.8 °F 64% 29.87 in 10.0 mi WSW 8.1 mph - N/A   Clear
6:55 PM 62.6 °F - 51.8 °F 68% 29.87 in 10.0 mi WSW 8.1 mph - N/A   Clear
7:15 PM 62.6 °F - 51.8 °F 68% 29.87 in 10.0 mi West 8.1 mph - N/A   Clear
7:35 PM 60.8 °F - 51.8 °F 72% 29.87 in 10.0 mi West 8.1 mph - N/A   Clear
7:55 PM 59.0 °F - 51.8 °F 77% 29.87 in 10.0 mi West 6.9 mph - N/A   Clear
8:15 PM 59.0 °F - 51.8 °F 77% 29.87 in 10.0 mi West 8.1 mph - N/A   Clear
8:35 PM 57.2 °F - 50.0 °F 77% 29.88 in 10.0 mi WSW 8.1 mph - N/A   Clear
8:55 PM 55.4 °F - 50.0 °F 82% 29.88 in 10.0 mi WSW 5.8 mph - N/A   Clear
9:15 PM 53.6 °F - 50.0 °F 88% 29.89 in 10.0 mi West 5.8 mph - N/A   Clear
9:35 PM 53.6 °F - 50.0 °F 88% 29.90 in 10.0 mi Calm Calm - N/A   Clear
9:55 PM 53.6 °F - 50.0 °F 88% 29.90 in 10.0 mi Calm Calm - N/A   Scattered Clouds
10:15 PM 53.6 °F - 50.0 °F 88% 29.92 in 10.0 mi Calm Calm - N/A   Overcast
10:35 PM 55.4 °F - 50.0 °F 82% 29.93 in 10.0 mi Calm Calm - N/A   Overcast
10:55 PM 53.6 °F - 50.0 °F 88% 29.93 in 10.0 mi SSW 6.9 mph - N/A   Overcast
11:15 PM 53.6 °F - 50.0 °F 88% 29.94 in 10.0 mi South 5.8 mph - N/A   Overcast
11:35 PM 53.6 °F - 50.0 °F 88% 29.95 in 10.0 mi South 9.2 mph - N/A   Overcast
11:55 PM 53.6 °F - 50.0 °F 88% 29.95 in 10.0 mi South 10.4 mph - N/A   Overcast